www.pogodaiklimat.ru

ПОГОДА в Роанок-Рапидсе, NC

  • Прогноз погоды в Роанок-Рапидсе
  • Монитор погоды в Роанок-Рапидсе
  • Климат в Роанок-Рапидсе

АРХИВ ПОГОДЫ в Роанок-Рапидсе

Время (UTC), дата Ветер
(напр.,м/с)
 
Видим.   Явления Облачность Т
(С)
Тd
(С)
f
(%)
Тe
(С)
Тes
(С)
Комфортность

P
(гПа)

Po
(гПа)
Тmin
(С)
Tmax
(С)
R
(мм)
SD
(см)
06:45 26.03 С  16 км  дождь  10/10 300 м  +6.0  +6.0  100  +2  +2      1010.2         
07:05 26.03 С  4
{7} 
16 км  морось  10/10 360 м  +6.0  +6.0  100  +1  +1      1010.2         
07:25 26.03 С  16 км  морось  10/10 570 м  +5.0  +5.0  100  0  0      1010.5         
07:45 26.03 С  16 км  слабая морось  10/10 630 м  +5.0  +5.0  100  -1  -1      1010.5         
08:05 26.03 С  4
{7} 
16 км  морось  10/10 690 м  +5.0  +5.0  100  +1  +1      1010.8         
08:25 26.03 С  16 км    10/10 690 м  +5.0  +5.0  100  0  0      1010.8         
08:45 26.03 С  16 км    10/10 690 м  +5.0  +5.0  100  +1  +1      1011.2         
09:05 26.03 С  16 км    10/10 690 м  +5.0  +5.0  100  +1  +1      1011.5         
09:25 26.03 С  16 км  слабая морось  10/10 570 м  +6.0  +6.0  100  +2  +2      1012.2         
09:45 26.03 С  16 км    10/10 540 м  +6.0  +6.0  100  +2  +2      1012.5         
10:05 26.03 СВ  16 км    8/5 780 м
[средняя] 
+6.0  +6.0  100  +2  +2      1012.9         
10:25 26.03 СВ  16 км    5/5 450 м
[средняя] 
+6.0  +6.0  100  +2  +2      1013.2         
10:45 26.03 С  16 км    10/10 510 м  +6.0  +6.0  100  +2  +2      1013.9         
11:05 26.03 С  16 км    10/10 450 м  +6.0  +6.0  100  +2  +2      1014.2         
11:25 26.03 С  4
{8} 
16 км    10/10 450 м  +6.0  +6.0  100  +1  +1      1014.6         
11:45 26.03 С  4
{9} 
16 км    10/10 450 м  +6.0  +6.0  100  +1  +1      1014.9         
12:05 26.03 СВ  6
{8} 
16 км    10/10 450 м  +6.0  +6.0  100  +1  +1      1015.2         
12:25 26.03 С  6
{9} 
16 км    10/10 450 м  +6.0  +5.0  93  +1  +1      1015.9         
12:45 26.03 С  6
{10} 
16 км    10/10 720 м  +6.0  +3.0  81  +1  +1      1016.2         
13:05 26.03 С  4
{10} 
16 км    10/10 720 м  +6.0  +2.0  75  +2  +2      1016.6         
13:25 26.03 СВ  5
{9} 
16 км    10/10 1230 м  +6.0  +2.0  75  +1  +1      1016.9         
13:45 26.03 СВ  6
{11} 
16 км    10/10 1500 м  +6.0  +1.0  70  +1  +1      1016.9         
14:05 26.03 С  5
{10} 
16 км    8/8 1500 м  +7.0  0.0  61  +3  +4      1017.2         
14:25 26.03 С  6
{11} 
16 км    5/5 1500 м  +8.0  0.0  57  +4  +5      1017.2         
14:45 26.03 СВ  7
{9} 
16 км    ясно  +8.0  0.0  57  +4  +5      1017.2         
15:05 26.03 С  7
{8} 
16 км    ясно  +9.0  +1.0  57  +5  +8      1017.2         
15:25 26.03 С  6
{9} 
16 км    ясно  +9.0  +1.0  57  +5  +10      1017.2         
15:45 26.03 СВ  6
{12} 
16 км    ясно  +10.0  0.0  50  +7  +10      1017.2         
16:05 26.03 С  7
{10} 
16 км    ясно  +10.0  0.0  50  +6  +9      1017.2         
16:25 26.03 СВ  6
{8} 
16 км    ясно  +10.0  -1.0  46  +7  +12      1017.2         
16:45 26.03 С  9
{11} 
16 км    ясно  +10.0  0.0  50  +6  +6      1017.2         
17:05 26.03 С  4
{7} 
16 км    ясно  +10.0  -1.0  46  +8  +17      1017.2         
17:25 26.03 С  7
{10} 
16 км    ясно  +11.0  0.0  47  +8  +10      1016.9         
17:45 26.03 С  4
{9} 
16 км    ясно  +11.0  0.0  47  +9  +17      1016.9         
18:05 26.03 С  6
{10} 
16 км    ясно  +11.0  0.0  47  +8  +11      1016.9         
18:25 26.03 С  6
{9} 
16 км    ясно  +11.0  -1.0  43  +8  +11      1016.9         
18:45 26.03 С  8
{9} 
16 км    ясно  +11.0  -1.0  43  +8  +9      1017.2         
19:00 26.03 С  7
{11} 
16 км    ясно  +11.0  -1.0  43  +8  +10      1017.2         
19:20 26.03 С  6
{11} 
16 км    ясно  +11.0  -2.0  40  +8  +10      1017.2         
19:40 26.03 С  6
{9} 
16 км    ясно  +11.0  -3.0  37  +8  +10      1017.2         
20:00 26.03 СВ  4
{9} 
16 км    ясно  +11.0  -3.0  37  +9  +11      1017.6         
20:20 26.03 С  16 км    ясно  +11.0  -3.0  37  +9  +12      1017.6         
20:40 26.03 С  3
{8} 
16 км    ясно  +11.0  -3.0  37  +9  +13      1017.9         
21:00 26.03 С  5
{8} 
16 км    ясно  +10.0  -4.0  37  +7  +8      1017.9         
21:20 26.03 СВ  16 км    ясно  +10.0  -3.0  40  +8  +9      1018.3         
21:40 26.03 СВ  16 км    ясно  +10.0  -4.0  37  +7  +8      1018.6         
22:00 26.03 СВ  16 км    ясно  +8.0  -4.0  42  +5  +5      1018.6         
22:20 26.03 СВ  16 км    ясно  +8.0  -4.0  42  +6  +6      1018.9         

 

Местоположение метеостанции Halifax-Northampton Regional Airport: широта 36.3300 долгота -77.6350 высота над уровнем моря 44 м.

В архиве по умолчанию представлена погода в Роанок-Рапидсе за последние 1-2 суток. Обновление информации о фактической погоде в базе происходит ежечасно! Архивные данные за месяц целиком и за предыдущие месяцы Вы можете получить, выбрав интересующий диапазон дат из раскрывающегося списка и нажав кнопку "Ввод!".

Внимание! Архив погоды МЕТАР в базе сайта хранится не более 60 дней. Нет смысла пытаться выбрать более раннюю дату.

Внимание! Время в таблицах - всемирное. Для получения местного времени необходимо прибавить поправку, которая в Роанок-Рапидсе равна -5 ч.

Ветер - указаны скорость ветра в м/с и направление, откуда дует ветер: С - северный, СВ - северо-восточный, В - восточный, ЮВ - юго-восточный, Ю - южный, ЮЗ - юго-западный, З - западный, СЗ - северо-западный.
Видимость - горизонтальная дальность видимости в метрах или километрах. При видимости от 1 до 10 км при отсутствии осадков обычно наблюдается дымка, при ухудшении видимости до 1 км и менее - туман. В сухую погоду видимость может ухудшаться дымом, пылью или мглою.
Атмосферные явления - указаны явления, наблюдавшиеся в указанный момент времени.
Облачность - указаны через наклонную черту верхняя и нижняя облачность в баллах и высота нижней границы облаков в метрах. Внимание: облачность, как и прочие метеорологические величины в США измеряются автоматическими метеостанциями. Указанные значения в баллах носят условный характер и показывают процент времени, в течение которого, в среднем, лазерный луч высотомера отражался от облаков обратно.
T - Температура воздуха - температура, измеренная на высоте 2 м над землей.
Td - Температура точки росы - температура, при понижении до которой содержащийся в воздухе водяной пар достигнет насыщения.
f - Относительная влажность воздуха - влажноcть воздуха, измеренная на высоте 2 м над землей.
Te - Эффективная температура - температура, которую ощущает одетый по сезону человек в тени. Характеристика душности погоды. При расчете учитывается влияние влажности воздуха и скорости ветра на теплоощущения человека.
Tes - Эффективная температура на солнце - температура, которую ощущает человек, с поправкой на солнечный нагрев. Характеристика знойности погоды. Зависит от высоты солнца над горизонтом, облачности и скорости ветра. Ночью, в пасмурную погоду, а также при ветре 12 м/с и более поправка равна нулю.
P - Атмосферное давление - приведенное к уровню моря атмосферное давление.
Po - Атмосферное давление - измеренное на уровне метеостанции атмосферное давление.
Tmin - Минимальная температура - минимум температуры воздуха на высоте 2 м над землей.
Tmax - Максимальная температура - максимум температуры воздуха на высоте 2 м над землей.
R - Количество осадков - Количество выпавших осадков за 3 или 6 часов, мм.
SD - Снежный покров - Высота снежного покрова, см.